Year,Month,Day,Hour,Minute,Value (Times are PST for temperature in C)
2007,08,29,00,00,14.70
2007,08,29,00,01,14.70
2007,08,29,00,02,14.60
2007,08,29,00,03,14.60
2007,08,29,00,04,14.60
2007,08,29,00,05,14.60
2007,08,29,00,06,14.60
2007,08,29,00,07,14.60
2007,08,29,00,08,14.50
2007,08,29,00,09,14.50
2007,08,29,00,10,14.50
2007,08,29,00,11,14.50
2007,08,29,00,12,14.40
2007,08,29,00,13,14.40
2007,08,29,00,14,14.40
2007,08,29,00,15,14.40
2007,08,29,00,16,14.40
2007,08,29,00,17,14.30
2007,08,29,00,18,14.30
2007,08,29,00,19,14.30
2007,08,29,00,20,14.30
2007,08,29,00,21,14.30
2007,08,29,00,22,14.20
2007,08,29,00,23,14.20
2007,08,29,00,24,14.20
2007,08,29,00,25,14.20
2007,08,29,00,26,14.20
2007,08,29,00,27,14.20
2007,08,29,00,28,14.20
2007,08,29,00,29,14.20
2007,08,29,00,30,14.20
2007,08,29,00,31,14.20
2007,08,29,00,32,14.20
2007,08,29,00,33,14.20
2007,08,29,00,34,14.20
2007,08,29,00,35,14.20
2007,08,29,00,36,14.20
2007,08,29,00,37,14.20
2007,08,29,00,38,14.20
2007,08,29,00,39,14.20
2007,08,29,00,40,14.20
2007,08,29,00,41,14.20
2007,08,29,00,42,14.10
2007,08,29,00,43,14.10
2007,08,29,00,44,14.10
2007,08,29,00,45,14.10
2007,08,29,00,46,14.10
2007,08,29,00,47,14.10
2007,08,29,00,48,14.10
2007,08,29,00,49,14.10
2007,08,29,00,50,14.10
2007,08,29,00,51,14.10
2007,08,29,00,52,14.10
2007,08,29,00,53,14.00
2007,08,29,00,54,14.00
2007,08,29,00,55,14.00
2007,08,29,00,56,14.00
2007,08,29,00,57,14.00
2007,08,29,00,58,14.00
2007,08,29,00,59,14.00
2007,08,29,01,00,13.90
2007,08,29,01,01,13.90
2007,08,29,01,02,13.90
2007,08,29,01,03,13.90
2007,08,29,01,04,13.90
2007,08,29,01,05,13.90
2007,08,29,01,06,13.90
2007,08,29,01,07,13.90
2007,08,29,01,08,13.90
2007,08,29,01,09,13.90
2007,08,29,01,10,13.90
2007,08,29,01,11,13.90
2007,08,29,01,12,13.80
2007,08,29,01,13,13.80
2007,08,29,01,14,13.80
2007,08,29,01,15,13.80
2007,08,29,01,16,13.80
2007,08,29,01,17,13.80
2007,08,29,01,18,13.80
2007,08,29,01,19,13.80
2007,08,29,01,20,13.80
2007,08,29,01,21,13.80
2007,08,29,01,22,13.80
2007,08,29,01,23,13.80
2007,08,29,01,24,13.80
2007,08,29,01,25,13.80
2007,08,29,01,26,13.80
2007,08,29,01,27,13.80
2007,08,29,01,28,13.80
2007,08,29,01,29,13.80
2007,08,29,01,30,13.80
2007,08,29,01,31,13.70
2007,08,29,01,32,13.70
2007,08,29,01,33,13.70
2007,08,29,01,34,13.70
2007,08,29,01,35,13.70
2007,08,29,01,36,13.70
2007,08,29,01,37,13.70
2007,08,29,01,38,13.60
2007,08,29,01,39,13.60
2007,08,29,01,40,13.60
2007,08,29,01,41,13.60
2007,08,29,01,42,13.60
2007,08,29,01,43,13.60
2007,08,29,01,44,13.60
2007,08,29,01,45,13.60
2007,08,29,01,46,13.60
2007,08,29,01,47,13.60
2007,08,29,01,48,13.60
2007,08,29,01,49,13.50
2007,08,29,01,50,13.50
2007,08,29,01,51,13.50
2007,08,29,01,52,13.50
2007,08,29,01,53,13.50
2007,08,29,01,54,13.50
2007,08,29,01,55,13.50
2007,08,29,01,56,13.50
2007,08,29,01,57,13.50
2007,08,29,01,58,13.50
2007,08,29,01,59,13.50
2007,08,29,02,00,13.50
2007,08,29,02,01,13.40
2007,08,29,02,02,13.40
2007,08,29,02,03,13.40
2007,08,29,02,04,13.40
2007,08,29,02,05,13.50
2007,08,29,02,06,13.50
2007,08,29,02,07,13.50
2007,08,29,02,08,13.50
2007,08,29,02,09,13.50
2007,08,29,02,10,13.40
2007,08,29,02,11,13.40
2007,08,29,02,12,13.40
2007,08,29,02,13,13.40
2007,08,29,02,14,13.40
2007,08,29,02,15,13.40
2007,08,29,02,16,13.40
2007,08,29,02,17,13.40
2007,08,29,02,18,13.40
2007,08,29,02,19,13.40
2007,08,29,02,20,13.40
2007,08,29,02,21,13.40
2007,08,29,02,22,13.40
2007,08,29,02,23,13.40
2007,08,29,02,24,13.40
2007,08,29,02,25,13.40
2007,08,29,02,26,13.40
2007,08,29,02,27,13.30
2007,08,29,02,28,13.30
2007,08,29,02,29,13.30
2007,08,29,02,30,13.30
2007,08,29,02,31,13.30
2007,08,29,02,32,13.30
2007,08,29,02,33,13.20
2007,08,29,02,34,13.20
2007,08,29,02,35,13.20
2007,08,29,02,36,13.20
2007,08,29,02,37,13.20
2007,08,29,02,38,13.20
2007,08,29,02,39,13.20
2007,08,29,02,40,13.20
2007,08,29,02,41,13.20
2007,08,29,02,42,13.10
2007,08,29,02,43,13.10
2007,08,29,02,44,13.10
2007,08,29,02,45,13.10
2007,08,29,02,46,13.10
2007,08,29,02,47,13.10
2007,08,29,02,48,13.10
2007,08,29,02,49,13.10
2007,08,29,02,50,13.10
2007,08,29,02,51,13.10
2007,08,29,02,52,13.10
2007,08,29,02,53,13.10
2007,08,29,02,54,13.10
2007,08,29,02,55,13.10
2007,08,29,02,56,13.00
2007,08,29,02,57,13.00
2007,08,29,02,58,13.00
2007,08,29,02,59,13.00
2007,08,29,03,00,13.00
2007,08,29,03,01,13.00
2007,08,29,03,02,13.00
2007,08,29,03,03,13.00
2007,08,29,03,04,12.90
2007,08,29,03,05,12.90
2007,08,29,03,06,12.90
2007,08,29,03,07,12.90
2007,08,29,03,08,12.90
2007,08,29,03,09,12.90
2007,08,29,03,10,12.90
2007,08,29,03,11,12.90
2007,08,29,03,12,12.90
2007,08,29,03,13,12.90
2007,08,29,03,14,12.90
2007,08,29,03,15,12.90
2007,08,29,03,16,12.90
2007,08,29,03,17,12.90
2007,08,29,03,18,12.90
2007,08,29,03,19,12.90
2007,08,29,03,20,12.90
2007,08,29,03,21,13.00
2007,08,29,03,22,13.00
2007,08,29,03,23,13.00
2007,08,29,03,24,13.00
2007,08,29,03,25,13.00
2007,08,29,03,26,13.00
2007,08,29,03,27,13.00
2007,08,29,03,28,13.00
2007,08,29,03,29,13.00
2007,08,29,03,30,13.10
2007,08,29,03,31,13.10
2007,08,29,03,32,13.10
2007,08,29,03,33,13.10
2007,08,29,03,34,13.10
2007,08,29,03,35,13.10
2007,08,29,03,36,13.20
2007,08,29,03,37,13.20
2007,08,29,03,38,13.20
2007,08,29,03,39,13.20
2007,08,29,03,40,13.20
2007,08,29,03,41,13.30
2007,08,29,03,42,13.30
2007,08,29,03,43,13.30
2007,08,29,03,44,13.30
2007,08,29,03,45,13.30
2007,08,29,03,46,13.30
2007,08,29,03,47,13.30
2007,08,29,03,48,13.30
2007,08,29,03,49,13.30
2007,08,29,03,50,13.30
2007,08,29,03,51,13.30
2007,08,29,03,52,13.40
2007,08,29,03,53,13.40
2007,08,29,03,54,13.40
2007,08,29,03,55,13.40
2007,08,29,03,56,13.40
2007,08,29,03,57,13.40
2007,08,29,03,58,13.40
2007,08,29,03,59,13.40
2007,08,29,04,00,13.40
2007,08,29,04,01,13.40
2007,08,29,04,02,13.40
2007,08,29,04,03,13.40
2007,08,29,04,04,13.40
2007,08,29,04,05,13.40
2007,08,29,04,06,13.40
2007,08,29,04,07,13.40
2007,08,29,04,08,13.40
2007,08,29,04,09,13.40
2007,08,29,04,10,13.40
2007,08,29,04,11,13.40
2007,08,29,04,12,13.30
2007,08,29,04,13,13.30
2007,08,29,04,14,13.30
2007,08,29,04,15,13.30
2007,08,29,04,16,13.30
2007,08,29,04,17,13.30
2007,08,29,04,18,13.30
2007,08,29,04,19,13.30
2007,08,29,04,20,13.30
2007,08,29,04,21,13.30
2007,08,29,04,22,13.30
2007,08,29,04,23,13.30
2007,08,29,04,24,13.30
2007,08,29,04,25,13.30
2007,08,29,04,26,13.30
2007,08,29,04,27,13.30
2007,08,29,04,28,13.30
2007,08,29,04,29,13.30
2007,08,29,04,30,13.30
2007,08,29,04,31,13.30
2007,08,29,04,32,13.30
2007,08,29,04,33,13.30
2007,08,29,04,34,13.30
2007,08,29,04,35,13.30
2007,08,29,04,36,13.30
2007,08,29,04,37,13.30
2007,08,29,04,38,13.30
2007,08,29,04,39,13.30
2007,08,29,04,40,13.30
2007,08,29,04,41,13.30
2007,08,29,04,42,13.30
2007,08,29,04,43,13.30
2007,08,29,04,44,13.30
2007,08,29,04,45,13.30
2007,08,29,04,46,13.30
2007,08,29,04,47,13.30
2007,08,29,04,48,13.30
2007,08,29,04,49,13.30
2007,08,29,04,50,13.30
2007,08,29,04,51,13.30
2007,08,29,04,52,13.30
2007,08,29,04,53,13.40
2007,08,29,04,54,13.40
2007,08,29,04,55,13.40
2007,08,29,04,56,13.40
2007,08,29,04,57,13.40
2007,08,29,04,58,13.40
2007,08,29,04,59,13.40
2007,08,29,05,00,13.40
2007,08,29,05,01,13.40
2007,08,29,05,02,13.40
2007,08,29,05,03,13.40
2007,08,29,05,04,13.40
2007,08,29,05,05,13.40
2007,08,29,05,06,13.50
2007,08,29,05,07,13.50
2007,08,29,05,08,13.50
2007,08,29,05,09,13.50
2007,08,29,05,10,13.50
2007,08,29,05,11,13.50
2007,08,29,05,12,13.40
2007,08,29,05,13,13.40
2007,08,29,05,14,13.40
2007,08,29,05,15,13.40
2007,08,29,05,16,13.30
2007,08,29,05,17,13.30
2007,08,29,05,18,13.30
2007,08,29,05,19,13.30
2007,08,29,05,20,13.30
2007,08,29,05,21,13.30
2007,08,29,05,22,13.30
2007,08,29,05,23,13.30
2007,08,29,05,24,13.30
2007,08,29,05,25,13.30
2007,08,29,05,26,13.20
2007,08,29,05,27,13.20
2007,08,29,05,28,13.20
2007,08,29,05,29,13.20
2007,08,29,05,30,13.20
2007,08,29,05,31,13.10
2007,08,29,05,32,13.10
2007,08,29,05,33,13.10
2007,08,29,05,34,13.00
2007,08,29,05,35,13.00
2007,08,29,05,36,13.00
2007,08,29,05,37,13.00
2007,08,29,05,38,12.90
2007,08,29,05,39,12.90
2007,08,29,05,40,12.90
2007,08,29,05,41,12.90
2007,08,29,05,42,12.90
2007,08,29,05,43,12.90
2007,08,29,05,44,12.90
2007,08,29,05,45,12.90
2007,08,29,05,46,12.80
2007,08,29,05,47,12.80
2007,08,29,05,48,12.80
2007,08,29,05,49,12.80
2007,08,29,05,50,12.80
2007,08,29,05,51,12.80
2007,08,29,05,52,12.70
2007,08,29,05,53,12.70
2007,08,29,05,54,12.70
2007,08,29,05,55,12.70
2007,08,29,05,56,12.70
2007,08,29,05,57,12.70
2007,08,29,05,58,12.70
2007,08,29,05,59,12.60
2007,08,29,06,00,12.60
2007,08,29,06,01,12.60
2007,08,29,06,02,12.60
2007,08,29,06,03,12.60
2007,08,29,06,04,12.60
2007,08,29,06,05,12.60
2007,08,29,06,06,12.60
2007,08,29,06,07,12.60
2007,08,29,06,08,12.60
2007,08,29,06,09,12.60
2007,08,29,06,10,12.50
2007,08,29,06,11,12.50
2007,08,29,06,12,12.50
2007,08,29,06,13,12.50
2007,08,29,06,14,12.50
2007,08,29,06,15,12.50
2007,08,29,06,16,12.50
2007,08,29,06,17,12.50
2007,08,29,06,18,12.50
2007,08,29,06,19,12.50
2007,08,29,06,20,12.50
2007,08,29,06,21,12.50
2007,08,29,06,22,12.50
2007,08,29,06,23,12.50
2007,08,29,06,24,12.50
2007,08,29,06,25,12.50
2007,08,29,06,26,12.50
2007,08,29,06,27,12.50
2007,08,29,06,28,12.50
2007,08,29,06,29,12.50
2007,08,29,06,30,12.50
2007,08,29,06,31,12.50
2007,08,29,06,32,12.50
2007,08,29,06,33,12.50
2007,08,29,06,34,12.50
2007,08,29,06,35,12.60
2007,08,29,06,36,12.50
2007,08,29,06,37,12.60
2007,08,29,06,38,12.60
2007,08,29,06,39,12.60
2007,08,29,06,40,12.60
2007,08,29,06,41,12.60
2007,08,29,06,42,12.60
2007,08,29,06,43,12.60
2007,08,29,06,44,12.60
2007,08,29,06,45,12.60
2007,08,29,06,46,12.60
2007,08,29,06,47,12.60
2007,08,29,06,48,12.60
2007,08,29,06,49,12.60
2007,08,29,06,50,12.60
2007,08,29,06,51,12.60
2007,08,29,06,52,12.70
2007,08,29,06,53,12.70
2007,08,29,06,54,12.70
2007,08,29,06,55,12.70
2007,08,29,06,56,12.70
2007,08,29,06,57,12.70
2007,08,29,06,58,12.80
2007,08,29,06,59,12.80
2007,08,29,07,00,12.80
2007,08,29,07,01,12.80
2007,08,29,07,02,12.80
2007,08,29,07,03,12.80
2007,08,29,07,04,12.90
2007,08,29,07,05,12.90
2007,08,29,07,06,12.90
2007,08,29,07,07,13.00
2007,08,29,07,08,13.00
2007,08,29,07,09,13.10
2007,08,29,07,10,13.10
2007,08,29,07,11,13.10
2007,08,29,07,12,13.20
2007,08,29,07,13,13.20
2007,08,29,07,14,13.30
2007,08,29,07,15,13.30
2007,08,29,07,16,13.40
2007,08,29,07,17,13.40
2007,08,29,07,18,13.50
2007,08,29,07,19,13.50
2007,08,29,07,20,13.60
2007,08,29,07,21,13.60
2007,08,29,07,22,13.60
2007,08,29,07,23,13.70
2007,08,29,07,24,13.70
2007,08,29,07,25,13.70
2007,08,29,07,26,13.70
2007,08,29,07,27,13.80
2007,08,29,07,28,13.80
2007,08,29,07,29,13.80
2007,08,29,07,30,13.80
2007,08,29,07,31,13.90
2007,08,29,07,32,13.90
2007,08,29,07,33,14.00
2007,08,29,07,34,14.00
2007,08,29,07,35,14.10
2007,08,29,07,36,14.10
2007,08,29,07,37,14.20
2007,08,29,07,38,14.20
2007,08,29,07,39,14.30
2007,08,29,07,40,14.30
2007,08,29,07,41,14.30
2007,08,29,07,42,14.30
2007,08,29,07,43,14.40
2007,08,29,07,44,14.40
2007,08,29,07,45,14.40
2007,08,29,07,46,14.40
2007,08,29,07,47,14.50
2007,08,29,07,48,14.60
2007,08,29,07,49,14.60
2007,08,29,07,50,14.70
2007,08,29,07,51,14.80
2007,08,29,07,52,14.80
2007,08,29,07,53,14.90
2007,08,29,07,54,15.00
2007,08,29,07,55,15.00
2007,08,29,07,56,15.00
2007,08,29,07,57,15.00
2007,08,29,07,58,15.00
2007,08,29,07,59,15.10
2007,08,29,08,00,15.20
2007,08,29,08,01,15.20
2007,08,29,08,02,15.20
2007,08,29,08,03,15.30
2007,08,29,08,04,15.30
2007,08,29,08,05,15.30
2007,08,29,08,06,15.40
2007,08,29,08,07,15.40
2007,08,29,08,08,15.50
2007,08,29,08,09,15.50
2007,08,29,08,10,15.50
2007,08,29,08,11,15.60
2007,08,29,08,12,15.60
2007,08,29,08,13,15.60
2007,08,29,08,14,15.60
2007,08,29,08,15,15.60
2007,08,29,08,16,15.60
2007,08,29,08,17,15.60
2007,08,29,08,18,15.60
2007,08,29,08,19,15.70
2007,08,29,08,20,15.70
2007,08,29,08,21,15.80
2007,08,29,08,22,15.80
2007,08,29,08,23,15.90
2007,08,29,08,24,16.00
2007,08,29,08,25,16.10
2007,08,29,08,26,16.10
2007,08,29,08,27,16.20
2007,08,29,08,28,16.20
2007,08,29,08,29,16.30
2007,08,29,08,30,16.40
2007,08,29,08,31,16.50
2007,08,29,08,32,16.60
2007,08,29,08,33,16.80
2007,08,29,08,34,16.80
2007,08,29,08,35,16.90
2007,08,29,08,36,16.90
2007,08,29,08,37,16.90
2007,08,29,08,38,16.90
2007,08,29,08,39,17.00
2007,08,29,08,40,17.00
2007,08,29,08,41,17.10
2007,08,29,08,42,17.00
2007,08,29,08,43,17.00
2007,08,29,08,44,17.00
2007,08,29,08,45,17.00
2007,08,29,08,46,17.10
2007,08,29,08,47,17.10
2007,08,29,08,48,17.10
2007,08,29,08,49,17.10
2007,08,29,08,50,17.20
2007,08,29,08,51,17.30
2007,08,29,08,52,17.40
2007,08,29,08,53,17.40
2007,08,29,08,54,17.40
2007,08,29,08,55,17.50
2007,08,29,08,56,17.60
2007,08,29,08,57,17.60
2007,08,29,08,58,17.50
2007,08,29,08,59,17.50
2007,08,29,09,00,17.50
2007,08,29,09,01,17.50
2007,08,29,09,02,17.50
2007,08,29,09,03,17.40
2007,08,29,09,04,17.40
2007,08,29,09,05,17.40
2007,08,29,09,06,17.50
2007,08,29,09,07,17.50
2007,08,29,09,08,17.60
2007,08,29,09,09,17.70
2007,08,29,09,10,17.80
2007,08,29,09,11,17.80
2007,08,29,09,12,17.90
2007,08,29,09,13,17.90
2007,08,29,09,14,17.90
2007,08,29,09,15,17.90
2007,08,29,09,16,17.90
2007,08,29,09,17,17.90
2007,08,29,09,18,17.90
2007,08,29,09,19,17.90
2007,08,29,09,20,17.90
2007,08,29,09,21,17.90
2007,08,29,09,22,17.80
2007,08,29,09,23,17.60
2007,08,29,09,24,17.60
2007,08,29,09,25,17.50
2007,08,29,09,26,17.50
2007,08,29,09,27,17.50
2007,08,29,09,28,17.50
2007,08,29,09,29,17.50
2007,08,29,09,30,17.50
2007,08,29,09,31,17.50
2007,08,29,09,32,17.50
2007,08,29,09,33,17.60
2007,08,29,09,34,17.50
2007,08,29,09,35,17.50
2007,08,29,09,36,17.40
2007,08,29,09,37,17.30
2007,08,29,09,38,17.20
2007,08,29,09,39,17.10
2007,08,29,09,40,17.00
2007,08,29,09,41,17.00
2007,08,29,09,42,16.90
2007,08,29,09,43,16.90
2007,08,29,09,44,17.00
2007,08,29,09,45,17.00
2007,08,29,09,46,17.10
2007,08,29,09,47,17.20
2007,08,29,09,48,17.20
2007,08,29,09,49,17.30
2007,08,29,09,50,17.40
2007,08,29,09,51,17.50
2007,08,29,09,52,17.60
2007,08,29,09,53,17.70
2007,08,29,09,54,17.70
2007,08,29,09,55,17.80
2007,08,29,09,56,17.80
2007,08,29,09,57,17.80
2007,08,29,09,58,17.80
2007,08,29,09,59,17.80
2007,08,29,10,00,17.80
2007,08,29,10,01,17.90
2007,08,29,10,02,17.90
2007,08,29,10,03,18.00
2007,08,29,10,04,18.00
2007,08,29,10,05,18.00
2007,08,29,10,06,17.90
2007,08,29,10,07,17.90
2007,08,29,10,08,17.80
2007,08,29,10,09,17.70
2007,08,29,10,10,17.60
2007,08,29,10,11,17.50
2007,08,29,10,12,17.50
2007,08,29,10,13,17.50
2007,08,29,10,14,17.60
2007,08,29,10,15,17.60
2007,08,29,10,16,17.60
2007,08,29,10,17,17.60
2007,08,29,10,18,17.60
2007,08,29,10,19,17.50
2007,08,29,10,20,17.50
2007,08,29,10,21,17.50
2007,08,29,10,22,17.60
2007,08,29,10,23,17.70
2007,08,29,10,24,17.80
2007,08,29,10,25,17.90
2007,08,29,10,26,17.90
2007,08,29,10,27,18.00
2007,08,29,10,28,18.10
2007,08,29,10,29,18.10
2007,08,29,10,30,18.10
2007,08,29,10,31,18.20
2007,08,29,10,32,18.20
2007,08,29,10,33,18.10
2007,08,29,10,34,18.20
2007,08,29,10,35,18.10
2007,08,29,10,36,18.10
2007,08,29,10,37,18.00
2007,08,29,10,38,17.90
2007,08,29,10,39,17.80
2007,08,29,10,40,17.70
2007,08,29,10,41,17.70
2007,08,29,10,42,17.70
2007,08,29,10,43,17.60
2007,08,29,10,44,17.60
2007,08,29,10,45,17.60
2007,08,29,10,46,17.60
2007,08,29,10,47,17.70
2007,08,29,10,48,17.70
2007,08,29,10,49,17.80
2007,08,29,10,50,17.90
2007,08,29,10,51,18.00
2007,08,29,10,52,18.10
2007,08,29,10,53,18.20
2007,08,29,10,54,18.20
2007,08,29,10,55,18.20
2007,08,29,10,56,18.20
2007,08,29,10,57,18.30
2007,08,29,10,58,18.30
2007,08,29,10,59,18.20
2007,08,29,11,00,18.10
2007,08,29,11,01,18.10
2007,08,29,11,02,18.10
2007,08,29,11,03,18.10
2007,08,29,11,04,18.10
2007,08,29,11,05,18.00
2007,08,29,11,06,18.00
2007,08,29,11,07,18.00
2007,08,29,11,08,18.00
2007,08,29,11,09,18.00
2007,08,29,11,10,18.00
2007,08,29,11,11,18.10
2007,08,29,11,12,18.10
2007,08,29,11,13,18.10
2007,08,29,11,14,18.10
2007,08,29,11,15,18.10
2007,08,29,11,16,18.20
2007,08,29,11,17,18.20
2007,08,29,11,18,18.10
2007,08,29,11,19,18.10
2007,08,29,11,20,18.10
2007,08,29,11,21,18.10
2007,08,29,11,22,18.20
2007,08,29,11,23,18.20
2007,08,29,11,24,18.40
2007,08,29,11,25,18.50
2007,08,29,11,26,18.60
2007,08,29,11,27,18.70
2007,08,29,11,28,18.70
2007,08,29,11,29,18.70
2007,08,29,11,30,18.70
2007,08,29,11,31,18.70
2007,08,29,11,32,18.60
2007,08,29,11,33,18.70
2007,08,29,11,34,18.70
2007,08,29,11,35,18.70
2007,08,29,11,36,18.80
2007,08,29,11,37,18.90
2007,08,29,11,38,19.00
2007,08,29,11,39,19.10
2007,08,29,11,40,19.20
2007,08,29,11,41,19.20
2007,08,29,11,42,19.20
2007,08,29,11,43,19.20
2007,08,29,11,44,19.20
2007,08,29,11,45,19.30
2007,08,29,11,46,19.30
2007,08,29,11,47,19.30
2007,08,29,11,48,19.30
2007,08,29,11,49,19.30
2007,08,29,11,50,19.40
2007,08,29,11,51,19.50
2007,08,29,11,52,19.60
2007,08,29,11,53,19.60
2007,08,29,11,54,19.70
2007,08,29,11,55,19.70
2007,08,29,11,56,19.60
2007,08,29,11,57,19.50
2007,08,29,11,58,19.50
2007,08,29,11,59,19.50
2007,08,29,12,00,19.60
2007,08,29,12,01,19.60
2007,08,29,12,02,19.80
2007,08,29,12,03,19.80
2007,08,29,12,04,19.90
2007,08,29,12,05,19.90
2007,08,29,12,06,19.90
2007,08,29,12,07,19.90
2007,08,29,12,08,19.90
2007,08,29,12,09,19.80
2007,08,29,12,10,19.80
2007,08,29,12,11,19.80
2007,08,29,12,12,19.80
2007,08,29,12,13,19.80
2007,08,29,12,14,19.80
2007,08,29,12,15,19.90
2007,08,29,12,16,19.90
2007,08,29,12,17,20.00
2007,08,29,12,18,20.00
2007,08,29,12,19,20.10
2007,08,29,12,20,20.10
2007,08,29,12,21,20.20
2007,08,29,12,22,20.20
2007,08,29,12,23,20.30
2007,08,29,12,24,20.30
2007,08,29,12,25,20.30
2007,08,29,12,26,20.30
2007,08,29,12,27,20.30
2007,08,29,12,28,20.30
2007,08,29,12,29,20.30
2007,08,29,12,30,20.40
2007,08,29,12,31,20.30
2007,08,29,12,32,20.20
2007,08,29,12,33,20.20
2007,08,29,12,34,20.20
2007,08,29,12,35,20.20
2007,08,29,12,36,20.20
2007,08,29,12,37,20.20
2007,08,29,12,38,20.10
2007,08,29,12,39,20.00
2007,08,29,12,40,19.90
2007,08,29,12,41,20.00
2007,08,29,12,42,20.00
2007,08,29,12,43,20.00
2007,08,29,12,44,20.10
2007,08,29,12,45,20.10
2007,08,29,12,46,20.20
2007,08,29,12,47,20.20
2007,08,29,12,48,20.20
2007,08,29,12,49,20.10
2007,08,29,12,50,20.10
2007,08,29,12,51,20.10
2007,08,29,12,52,20.10
2007,08,29,12,53,20.10
2007,08,29,12,54,20.10
2007,08,29,12,55,20.10
2007,08,29,12,56,20.20
2007,08,29,12,57,20.20
2007,08,29,12,58,20.30
2007,08,29,12,59,20.40
2007,08,29,13,00,20.40
2007,08,29,13,01,20.60
2007,08,29,13,02,20.70
2007,08,29,13,03,20.80
2007,08,29,13,04,20.80
2007,08,29,13,05,20.80
2007,08,29,13,06,20.80
2007,08,29,13,07,20.80
2007,08,29,13,08,20.70
2007,08,29,13,09,20.60
2007,08,29,13,10,20.60
2007,08,29,13,11,20.60
2007,08,29,13,12,20.60
2007,08,29,13,13,20.60
2007,08,29,13,14,20.60
2007,08,29,13,15,20.60
2007,08,29,13,16,20.60
2007,08,29,13,17,20.50
2007,08,29,13,18,20.50
2007,08,29,13,19,20.60
2007,08,29,13,20,20.60
2007,08,29,13,21,20.60
2007,08,29,13,22,20.70
2007,08,29,13,23,20.80
2007,08,29,13,24,20.80
2007,08,29,13,25,20.80
2007,08,29,13,26,20.80
2007,08,29,13,27,20.90
2007,08,29,13,28,20.80
2007,08,29,13,29,20.80
2007,08,29,13,30,20.80
2007,08,29,13,31,20.80
2007,08,29,13,32,20.80
2007,08,29,13,33,20.70
2007,08,29,13,34,20.60
2007,08,29,13,35,20.60
2007,08,29,13,36,20.50
2007,08,29,13,37,20.50
2007,08,29,13,38,20.60
2007,08,29,13,39,20.60
2007,08,29,13,40,20.70
2007,08,29,13,41,20.70
2007,08,29,13,42,20.70
2007,08,29,13,43,20.70
2007,08,29,13,44,20.70
2007,08,29,13,45,20.70
2007,08,29,13,46,20.80
2007,08,29,13,47,20.80
2007,08,29,13,48,20.80
2007,08,29,13,49,20.80
2007,08,29,13,50,20.80
2007,08,29,13,51,20.90
2007,08,29,13,52,20.90
2007,08,29,13,53,21.00
2007,08,29,13,54,21.00
2007,08,29,13,55,21.10
2007,08,29,13,56,21.20
2007,08,29,13,57,21.20
2007,08,29,13,58,21.30
2007,08,29,13,59,21.30
2007,08,29,14,00,21.30
2007,08,29,14,01,21.20
2007,08,29,14,02,21.20
2007,08,29,14,03,21.20
2007,08,29,14,04,21.20
2007,08,29,14,05,21.20
2007,08,29,14,06,21.30
2007,08,29,14,07,21.30
2007,08,29,14,08,21.30
2007,08,29,14,09,21.40
2007,08,29,14,10,21.40
2007,08,29,14,11,21.40
2007,08,29,14,12,21.40
2007,08,29,14,13,21.30
2007,08,29,14,14,21.30
2007,08,29,14,15,21.30
2007,08,29,14,16,21.30
2007,08,29,14,17,21.40
2007,08,29,14,18,21.40
2007,08,29,14,19,21.50
2007,08,29,14,20,21.50
2007,08,29,14,21,21.60
2007,08,29,14,22,21.70
2007,08,29,14,23,21.70
2007,08,29,14,24,21.70
2007,08,29,14,25,21.70
2007,08,29,14,26,21.70
2007,08,29,14,27,21.80
2007,08,29,14,28,21.80
2007,08,29,14,29,21.80
2007,08,29,14,30,21.80
2007,08,29,14,31,21.80
2007,08,29,14,32,21.90
2007,08,29,14,33,21.90
2007,08,29,14,34,21.90
2007,08,29,14,35,21.90
2007,08,29,14,36,22.00
2007,08,29,14,37,22.00
2007,08,29,14,38,22.10
2007,08,29,14,39,22.10
2007,08,29,14,40,22.10
2007,08,29,14,41,22.10
2007,08,29,14,42,22.10
2007,08,29,14,43,22.10
2007,08,29,14,44,22.00
2007,08,29,14,45,22.00
2007,08,29,14,46,22.00
2007,08,29,14,47,22.10
2007,08,29,14,48,22.10
2007,08,29,14,49,22.10
2007,08,29,14,50,22.10
2007,08,29,14,51,22.20
2007,08,29,14,52,22.30
2007,08,29,14,53,22.30
2007,08,29,14,54,22.30
2007,08,29,14,55,22.30
2007,08,29,14,56,22.30
2007,08,29,14,57,22.30
2007,08,29,14,58,22.20
2007,08,29,14,59,22.10
2007,08,29,15,00,22.10
2007,08,29,15,01,22.00
2007,08,29,15,02,22.00
2007,08,29,15,03,21.90
2007,08,29,15,04,21.90
2007,08,29,15,05,21.80
2007,08,29,15,06,21.80
2007,08,29,15,07,21.80
2007,08,29,15,08,21.80
2007,08,29,15,09,21.80
2007,08,29,15,10,21.80
2007,08,29,15,11,21.80
2007,08,29,15,12,21.80
2007,08,29,15,13,21.80
2007,08,29,15,14,21.80
2007,08,29,15,15,21.80
2007,08,29,15,16,21.80
2007,08,29,15,17,21.90
2007,08,29,15,18,21.90
2007,08,29,15,19,22.00
2007,08,29,15,20,22.00
2007,08,29,15,21,22.00
2007,08,29,15,22,22.00
2007,08,29,15,23,22.00
2007,08,29,15,24,22.10
2007,08,29,15,25,22.10
2007,08,29,15,26,22.10
2007,08,29,15,27,22.20
2007,08,29,15,28,22.20
2007,08,29,15,29,22.30
2007,08,29,15,30,22.30
2007,08,29,15,31,22.40
2007,08,29,15,32,22.40
2007,08,29,15,33,22.40
2007,08,29,15,34,22.40
2007,08,29,15,35,22.30
2007,08,29,15,36,22.30
2007,08,29,15,37,22.30
2007,08,29,15,38,22.40
2007,08,29,15,39,22.40
2007,08,29,15,40,22.40
2007,08,29,15,41,22.40
2007,08,29,15,42,22.40
2007,08,29,15,43,22.40
2007,08,29,15,44,22.40
2007,08,29,15,45,22.50
2007,08,29,15,46,22.40
2007,08,29,15,47,22.40
2007,08,29,15,48,22.40
2007,08,29,15,49,22.30
2007,08,29,15,50,22.20
2007,08,29,15,51,22.20
2007,08,29,15,52,22.10
2007,08,29,15,53,22.10
2007,08,29,15,54,22.00
2007,08,29,15,55,21.90
2007,08,29,15,56,22.00
2007,08,29,15,57,22.00
2007,08,29,15,58,22.00
2007,08,29,15,59,21.90
2007,08,29,16,00,21.90
2007,08,29,16,01,21.90
2007,08,29,16,02,21.90
2007,08,29,16,03,21.90
2007,08,29,16,04,21.90
2007,08,29,16,05,22.00
2007,08,29,16,06,22.00
2007,08,29,16,07,22.10
2007,08,29,16,08,22.20
2007,08,29,16,09,22.20
2007,08,29,16,10,22.30
2007,08,29,16,11,22.30
2007,08,29,16,12,22.30
2007,08,29,16,13,22.20
2007,08,29,16,14,22.20
2007,08,29,16,15,22.10
2007,08,29,16,16,22.10
2007,08,29,16,17,22.00
2007,08,29,16,18,21.80
2007,08,29,16,19,21.80
2007,08,29,16,20,21.80
2007,08,29,16,21,21.80
2007,08,29,16,22,21.80
2007,08,29,16,23,21.90
2007,08,29,16,24,21.90
2007,08,29,16,25,22.00
2007,08,29,16,26,22.00
2007,08,29,16,27,22.00
2007,08,29,16,28,22.00
2007,08,29,16,29,21.90
2007,08,29,16,30,21.90
2007,08,29,16,31,22.00
2007,08,29,16,32,22.10
2007,08,29,16,33,22.20
2007,08,29,16,34,22.20
2007,08,29,16,35,22.30
2007,08,29,16,36,22.30
2007,08,29,16,37,22.30
2007,08,29,16,38,22.40
2007,08,29,16,39,22.40
2007,08,29,16,40,22.40
2007,08,29,16,41,22.40
2007,08,29,16,42,22.30
2007,08,29,16,43,22.40
2007,08,29,16,44,22.40
2007,08,29,16,45,22.40
2007,08,29,16,46,22.40
2007,08,29,16,47,22.40
2007,08,29,16,48,22.50
2007,08,29,16,49,22.60
2007,08,29,16,50,22.60
2007,08,29,16,51,22.70
2007,08,29,16,52,22.70
2007,08,29,16,53,22.70
2007,08,29,16,54,22.70
2007,08,29,16,55,22.70
2007,08,29,16,56,22.70
2007,08,29,16,57,22.80
2007,08,29,16,58,22.90
2007,08,29,16,59,22.90
2007,08,29,17,00,23.00
2007,08,29,17,01,23.10
2007,08,29,17,02,23.10
2007,08,29,17,03,23.20
2007,08,29,17,04,23.20
2007,08,29,17,05,23.20
2007,08,29,17,06,23.20
2007,08,29,17,07,23.20
2007,08,29,17,08,23.20
2007,08,29,17,09,23.20
2007,08,29,17,10,23.10
2007,08,29,17,11,23.10
2007,08,29,17,12,23.10
2007,08,29,17,13,23.10
2007,08,29,17,14,23.10
2007,08,29,17,15,23.10
2007,08,29,17,16,23.00
2007,08,29,17,17,22.90
2007,08,29,17,18,22.80
2007,08,29,17,19,22.70